STARLINK-11177 [DTC] (60118 NORAD) Tracking and Keplerian Element Data

This shows tracking and keplerian element data for the satellite.

Feedback or suggestion? Click here.




ElementValue
Catalog60118
NameSTARLINK-11177 [DTC]
Epoch Orbit1845
Epoch Day286.58339089
Epoch Year2024
RAAN230.7272
Inclination53.1566
Eccentricity0.0001038
Argument of Perigee142.4396
Mean Anonmoly217.6694
Mean Motion15.69733445
Decay Rate0.00048564
L11 60118U 24118F 24286.58339089 .00048564 00000+0 40297-3 0 9990
L22 60118 53.1566 230.7272 0001038 142.4396 217.6694 15.69733445 18458



Live tracking and technical data element details for STARLINK-11177 [DTC] (NORAD 60118). STARLINK-11177 [DTC] can be tracked NOW for your location showing map with azimuth and elevation plus other details from your city location.







IsCatalogInMostPopularTable: catalog: 60118, numindb: 8
Update: records affected: 1



GetName: 60118 STARLINK-11177 [DTC]

Hit Count: updated at: Thu, 23 Jan 2025 14:40:53 GMT